www.pogodaiklimat.ru

Погода и климат >> Архив погоды >> Индия >> Naliya


ПОГОДА в Naliya

  • Прогноз погоды в Naliya
  • Монитор погоды в Naliya
  • Климат города

АРХИВ ПОГОДЫ в Naliya

Время (UTC), дата Ветер
(напр.,м/с)
 
Видим.   Явления Облачность Т
(С)
Тd
(С)
f
(%)
Тe
(С)
Тes
(С)
Комфортность P
(гПа)
Po
(гПа)
Тmin
(С)
Tmax
(С)
R
(мм)
R24
(мм)
S
(см)
09 6.12 штиль 0 10 км ясно +31.0 +5.2 20 +29 +41 жарко 1011.4 1011.0
12 6.12 З 2 10 км ясно +27.4 +11.8 38 +29 +29 жарко 1011.1 1011.0 +31.7
15 6.12 штиль 0 4000 м ясно +22.2 +16.7 71 +27 +27 душно 1013.2 1013.0
18 6.12 штиль 0 4000 м ясно +17.2 +12.5 74 +17 +17 1013.8 1014.0
21 6.12 штиль 0 4000 м ясно +15.8 +11.4 75 +16 +16 1012.9 1013.0
00 7.12 штиль 0 4000 м ясно +14.4 +10.6 78 +14 +14 1013.0 1013.0
03 7.12 штиль 0 4000 м ясно +14.8 +11.1 78 +15 +16 1014.6 1015.0 +12.0
06 7.12 штиль 0 10 км ясно +28.4 +7.2 26 +28 +40 жарко 1014.6 1015.0
09 7.12 штиль 0 10 км ясно +30.6 +2.2 16 +28 +40 жарко 1011.7 1012.0
12 7.12 З 2 10 км ясно +29.6 +8.1 26 +29 +29 жарко 1011.4 1011.0 +31.2
15 7.12 штиль 0 4000 м ясно +21.6 +6.2 37 +22 +22 комфорт 1013.4 1013.0
18 7.12 штиль 0 4000 м ясно +17.0 +4.9 45 +17 +17 1013.7 1014.0
21 7.12 штиль 0 4000 м ясно +14.8 +4.5 50 +15 +15 1013.2 1013.0
00 8.12 штиль 0 4000 м ясно +12.8 +4.5 57 +13 +13 1013.3 1013.0
03 8.12 штиль 0 4000 м ясно +13.8 +7.3 65 +14 +15 1015.8 1016.0 +11.7
06 8.12 С 2 10 км ясно +27.4 +9.9 33 +28 +37 жарко 1016.4 1016.0
09 8.12 З 3 10 км ясно +30.2 +6.2 22 +29 +36 жарко 1013.5 1014.0
12 8.12 З 3 10 км ясно +27.2 +11.1 37 +28 +29 жарко 1012.9 1013.0 +30.8
15 8.12 штиль 0 4000 м ясно +21.8 +16.2 70 +26 +26 душно 1014.4 1014.0
18 8.12 штиль 0 4000 м ясно +18.6 +14.5 77 +19 +19 1014.9 1015.0
21 8.12 штиль 0 4000 м ясно +15.0 +11.7 81 +15 +15 1014.3 1014.0
00 9.12 штиль 0 4000 м ясно +13.6 +10.1 79 +13 +13 1014.0 1014.0
03 9.12 штиль 0 4000 м ясно +16.2 +13.0 81 +16 +17 1015.2 1015.0 +12.4
06 9.12 штиль 0 10 км ясно +27.8 +11.5 36 +29 +41 жарко 1015.5 1016.0
09 9.12 З 2 10 км 4/3 600 м
[Sc diur, vesp Ci fib]
+29.4 +11.9 34 +30 +36 жарко 1012.6 1013.0
12 9.12 З 3 10 км 3/3 600 м
[Sc diur, vesp]
+26.8 +16.5 53 +30 +31 душно 1011.8 1012.0 +30.2
15 9.12 штиль 0 4000 м ясно +23.2 +17.4 70 +29 +29 душно 1013.4 1013.0
18 9.12 штиль 0 4000 м ясно +20.6 +15.6 73 +23 +23 комфорт 1013.5 1014.0
21 9.12 штиль 0 4000 м ясно +18.6 +14.1 75 +19 +19 1012.1 1012.0
00 10.12 штиль 0 4000 м ясно +18.2 +14.0 76 +18 +18 1011.7 1012.0
03 10.12 штиль 0 4000 м 5/5 600 м
[Cu Sc]
+22.0 +17.8 77 +27 +27 душно 1013.3 1013.0 +17.0
06 10.12 З 2 10 км 5/5 600 м
[Sc diur, vesp]
+28.6 +17.9 52 +33 +38 очень
душно
1013.6 1014.0
09 10.12 З 4 10 км 5/5 600 м
[Sc diur, vesp]
+29.8 +17.2 47 +34 +37 очень
душно
1010.6 1011.0
12 10.12 З 3 4000 м 6/6 600 м
[Sc diur, vesp]
+27.6 +18.6 58 +33 +33 очень
душно
1010.9 1011.0 +30.0
15 10.12 штиль 0 4000 м ясно +23.6 +18.5 73 +28 +28 душно 1012.6 1013.0
18 10.12 штиль 0 4000 м ясно +21.4 +17.2 77 +25 +25 комфорт 1013.4 1013.0
21 10.12 штиль 0 4000 м ясно +18.2 +14.8 81 +18 +18 1012.6 1013.0
00 11.12 штиль 0 4000 м ясно +16.2 +13.4 83 +16 +16 1012.8 1013.0
03 11.12 штиль 0 10 км ясно +16.6 +14.5 87 +16 +17 1014.9 1015.0 +15.4
06 11.12 штиль 0 10 км ясно +26.8 +15.7 51 +30 +42 душно 1015.5 1016.0
09 11.12 С 2 10 км 6/6 600 м
[Cu Sc]
+29.4 +12.4 35 +30 +34 жарко 1012.5 1013.0
12 11.12 З 3 10 км 5/5 600 м
[Cu Sc]
+27.2 +11.1 37 +28 +28 жарко 1012.2 1012.0 +29.7
15 11.12 С 2 4000 м 4/4 600 м
[Sc]
+24.0 +11.7 46 +26 +26 жарко 1014.3 1014.0
18 11.12 штиль 0 4000 м 4/4 600 м
[Sc]
+20.6 +12.5 60 +23 +23 комфорт 1014.7 1015.0
21 11.12 С 2 4000 м 3/3 600 м
[Sc]
+19.2 +13.6 70 +21 +21 комфорт 1014.3 1014.0
00 12.12 С 2 4000 м 3/3 600 м
[Sc]
+17.0 +12.7 76 +18 +18 1014.7 1015.0
03 12.12 С 2 4000 м ясно +16.2 +11.0 71 +17 +17 1017.1 1017.0 +14.6
06 12.12 С 3 10 км ясно +25.6 +8.6 34 +26 +33 жарко 1017.9 1018.0
09 12.12 С 2 10 км ясно +27.8 +2.8 20 +26 +35 жарко 1015.2 1015.0
12 12.12 С 2 10 км ясно +26.8 +2.2 20 +25 +26 комфорт 1015.1 1015.0 +28.2
15 12.12 штиль 0 4000 м ясно +21.2 +3.8 32 +21 +21 комфорт 1017.3 1017.0
18 12.12 штиль 0 4000 м ясно +19.0 +10.9 59 +20 +20 1018.5 1019.0
21 12.12 штиль 0 4000 м ясно +16.2 +7.9 58 +16 +16 1018.3 1018.0
00 13.12 штиль 0 4000 м ясно +14.8 +6.6 58 +15 +15 1018.8 1019.0
03 13.12 штиль 0 10 км ясно +15.0 +6.8 58 +15 +16 1021.3 1021.0 +13.0
06 13.12 С 2 10 км ясно +23.6 +7.1 35 +24 +33 комфорт 1021.9 1022.0

 

Местоположение метеостанции Naliya (Gujarat, Индия): широта 23.25 долгота 68.85 высота над уровнем моря 21 м.

В архиве по умолчанию представлена погода в Naliya за последнюю неделю. Архивные данные за месяц целиком и за предыдущие месяцы, начиная с января 2011 года, Вы можете получить, выбрав интересующий диапазон дат из раскрывающегося списка и нажав кнопку "Ввод!".


*Определитесь, кто Вы:
робот инопланетянин человек

Внимание! Время в таблицах - всемирное. Для получения местного времени необходимо прибавить поправку, которая в Naliya равна 5.5 ч.

Смотрите также архив погоды в соседних городах и на ближайших метеорологических станциях:

Погода в Mandvi (Gujarat, Индия) (64 км)
Погода в Bhuj-Rudramata (Gujarat, Индия) (84 км)
Погода в Okha (Gujarat, Индия) (90 км)
Погода в Dwarka (Gujarat, Индия) (101 км)
Погода в Kandla (Gujarat, Индия) (129 км)
Погода в New Kandla (Gujarat, Индия) (143 км)
Погода в Badin (Пакистан) (154 км)
Погода в Porbandar (Gujarat, Индия) (197 км)
Погода в Sakrand (Пакистан) (217 км)
Погода в Rajkot (Gujarat, Индия) (224 км)

Пояснения к столбцам:

Ветер - указаны скорость ветра в м/с - средняя за 10 мин, порывы в срок и между сроками (в фигурных скобках) и направление, откуда дует ветер: С - северный, СВ - северо-восточный, В - восточный, ЮВ - юго-восточный, Ю - южный, ЮЗ - юго-западный, З - западный, СЗ - северо-западный.
Видимость - горизонтальная дальность видимости в метрах или километрах. При видимости от 1 до 10 км при отсутствии осадков обычно наблюдается дымка, при ухудшении видимости до 1 км и менее - туман. В сухую погоду видимость может ухудшаться дымом, пылью или мглою.
Явления - указаны атмосферные явления, наблюдавшиеся в срок или в последний час перед сроком; фигурными скобками обозначены явления, наблюдавшиеся между сроками (за 1-3 часа до срока); квадратными скобками обозначены град или гололедные отложения с указанием их диаметра в мм.
Облачность - указаны через наклонную черту общая и нижняя облачность в баллах и высота нижней границы облаков в метрах; квадратными скобками обозначены формы облаков: Ci - перистые, Cs - перисто-слоистые, Cc - перисто-кучевые, Ac - высококучевые, As - высокослоистые, Sc - слоисто-кучевые, Ns - слоисто-дождевые, Cu - кучевые, Cb - кучево-дождевые. Подробнее классификацию облаков см. в Атласе облаков (PDF).
T - Температура воздуха - температура, измеренная на высоте 2 м над землей.
Td - Температура точки росы - температура, при понижении до которой содержащийся в воздухе водяной пар достигнет насыщения.
f - Относительная влажность воздуха - влажноcть воздуха, измеренная на высоте 2 м над землей.
Te - Эффективная температура - температура, которую ощущает одетый по сезону человек в тени. Характеристика душности погоды. При расчете учитывается влияние влажности воздуха и скорости ветра на теплоощущения человека.
Tes - Эффективная температура на солнце - температура, которую ощущает человек, с поправкой на солнечный нагрев. Характеристика знойности погоды. Зависит от высоты солнца над горизонтом, облачности и скорости ветра. Ночью, в пасмурную погоду, а также при ветре 12 м/с и более поправка равна нулю.
P - Атмосферное давление - приведенное к уровню моря атмосферное давление.
Po - Атмосферное давление - измеренное на уровне метеостанции атмосферное давление.
Tmin - Минимальная температура - минимум температуры воздуха на высоте 2 м над землей.
Tmax - Максимальная температура - максимум температуры воздуха на высоте 2 м над землей.
R - Количество осадков - Количество выпавших осадков за период времени, мм. При наведении курсора мыши на число - период времени, за который выпало указанное количество осадков.
R24 - Количество осадков - Количество выпавших осадков за 24 часа, мм.
S - Снежный покров - Высота снежного покрова, см. При наведении курсора мыши на число - состояние снежного покрова и степень покрытия местности в баллах.